COSMOS 2251 DEB, 40803

Orbit data source: Space-Track

COSMOS 2251 DEB, 40803 is space debris in LEO originally from a launch on Wed, 16 Jun 1993 UTC launched from the Plesetsk Missile And Space Complex (PKMTR). The debris from Iridium 33, an American commercial communications satellite, has been tracked extensively since its accidental collision with the defunct Russian satellite Cosmos 2251 in 2009. This event, occurring at high speed in low Earth orbit (LEO), generated thousands of pieces of space debris, significantly increasing the risk of further collisions. The Iridium 33 debris cloud has impacted space traffic management and orbital debris mitigation strategies, making it a subject of ongoing study in space situational awareness.

Loading next visibility...
Identifier
40803, 1993-036BWG
Orbit
LEO
Country
Flag of CISCIS
Related business
Manufacturer
Unknown
Mission
Spacecraft
Bus & Motor
Unknown
Mass
Unknown
Launch date (UTC)
1993-06-16 (32 years ago)
Launch vehicle
Unknown
Launch site
Plesetsk Missile And Space Complex (PKMTR)
Object type
Payload
Rocket body
Debris
Shape & HBR
Unknown
Radar Cross Section
Small (<0.1 m²)

Expand to show TLE details & history
Last TLE update: 5 days ago

TLE from 5 days ago
0 COSMOS 2251 DEB
1 40803U 93036BWG 25257.18699844  .00001002  00000-0  25633-3 0  9991
2 40803  74.0134 220.7345 0031360  98.6298 261.8418 14.51461587574530
Epoch: 2025-09-14T04:29Z
TLE epoch observation values (Epoch: 2025-09-14T04:29:16.665Z)
Latitude
-0°
Longitude
160.00545°
Altitude
726.736 km
Speed
7.49 km/s
True Right ascension
14h 42m 56s
True Declination
0° 00' 00"
Sunlit
Object was in daylight at epoch
Visualization orbit readout
Latitude
Unknown
Longitude
Unknown
Altitude
Unknown
Speed
Unknown
Apparent Right ascension
Unknown
Apparent Declination
Unknown
Sunlit
N/A
Visualization observer readout
Local Sidereal Time
11:18:21
Azimuth
Unknown
Elevation
Unknown
Doppler factor
Unknown
Orbital elements
Apogee altitude
740.743 km
Perigee altitude
696.233 km
Semi-major axis
7,096.625 km
Eccentricity
0.00314
Inclination
74.0134°
RAAN
220.7345°
Arg. of periapsis
98.6298°
True anomaly
261.48628°
Mean anomaly
261.8418°
Eccentric anomaly
261.66402°
Mean motion
3.63049 °/min
Orbital period
99.16 mins
BSTAR
0.00025633
Loading maneuver chart data...
Computing Atmospheric mass density...

Documentation

Showing up to 5 results
|